Weather in Tsentralny

Russia / Kemerovo Oblast     55°12′32″N   87°38′46″E
temp.,
°C
wind,
m/s
gust,
m/s
humid.,
%
clouds,
%
prec.,
mm/h
press.,
hPa
HPBL,
m
13 may, thu
thu1301:00+7ese22591 0.0 101412
04:00+6se22614 0.0 101412
07:00+9sse225818 0.0 101466
10:00+16ssw23375 0.0 1013850
13:00+17ssw323298 0.0 10122745
16:00+17sw443549 0.0 10112302
19:00+14wsw585475 0.0 1012844
22:00+9se227853 0.0 101314
14 may, fri
fri1401:00+9s1172100 0.0 101311
04:00+6wsw1188100 0.0 101410
07:00+8nw1285100 0.2 1015154
10:00+7wnw369099 0.7 1016918
13:00+9nw57668 0.9 10161400
16:00+12nw58335 0.0 10172003
19:00+10nw473899 0.0 10191586
22:00+5w1157100 0.0 102212
15 may, sat
sat1501:00+5ssw2355100 0.0 102268
04:00+5sw31057100 0.0 1022660
07:00+6sw51257100 0.1 1022623
10:00+8ssw6166490 0.0 1021679
13:00+11ssw8155583 0.1 1020869
16:00+11ssw8156045 0.0 1020795
19:00+10ssw5166598 0.0 1018636
22:00+10ssw6166793 0.0 1017518
16 may, sun
sun1601:00+10ssw51673100 0.1 1016601
04:00+9ssw51382100 0.8 1015463
07:00+9ssw4128595 0.9 1014479
10:00+11ssw51184100 0.4 1014521
13:00+14ssw61082100 1.1 1013842
16:00+16ssw4874100 0.6 1010610
19:00+11n279681 16.4 1014493
22:00+9nne2694100 0.0 1016509
17 may, mon
mon1701:00+7nne249699 0.1 1018260
04:00+5ne119795 0.0 101811
07:00+7e118862 0.0 1019106
10:00+12sw226291 0.0 1018657
13:00+15sw565688 0.0 1016984
16:00+17sw610565 0.0 1014963
19:00+17sw512685 0.1 10121012
22:00+14ssw616835 1.3 1010566